Paris / Charles De Gaulle, France

9:46 AM CEST on March 28, 2017 (GMT +0200)
Charles de Gaulle

Weather History for LFPG - March, 2013

Change the Weather History Date:

Monday, March 18, 2013

  Actual Average Record
Temperature  
Mean Temperature 40 °F -  
Max Temperature 46 °F 56 °F 66 °F (2004)
Min Temperature 33 °F 40 °F 30 °F (2006)
Degree Days  
Heating Degree Days 26    
Moisture  
Dew Point 34 °F    
Average Humidity 82    
Maximum Humidity 93    
Minimum Humidity 66    
Precipitation  
Precipitation 0.00 in - - ()
Sea Level Pressure  
Sea Level Pressure 29.31 in    
Wind  
Wind Speed 9 mph ()    
Max Wind Speed 16 mph    
Max Gust Speed 28 mph    
Visibility 6.1 miles    
Events Rain    
Averages and records for this station are not official NWS values.
T = Trace of Precipitation, MM = Missing Value Source: Averaged Metar Reports

Daily Weather History Graph

Daily Weather History Graph

Search for Another Location

Airport or City:

Trip Planner

Search our weather history database for the weather conditions in past years. The results will help you decide how hot, cold, wet, or windy it might be!

Date:

Astronomy

Mar. 18, 2013 Rise Set
Actual Time 6:56 AM CET 6:59 PM CET
Civil Twilight 6:25 AM CET 7:31 PM CET
Nautical Twilight 5:48 AM CET 8:08 PM CET
Astronomical Twilight 5:10 AM CET 8:46 PM CET
Moon 10:14 AM CET (3/18) 1:15 AM CET (3/18)
Length of Visible Light 13h 06m
Length of Day
12h 02m
Waxing Crescent, 38% of the Moon is Illuminated
Mar 18
Waxing Crescent
Mar 19
First Quarter
Mar 27
Full
Apr 3
Last Quarter
Apr 10
New

Hourly Weather History & Observations

Time (CET) Temp. Windchill Dew Point Humidity Pressure Visibility Wind Dir Wind Speed Gust Speed Precip Events Conditions
12:00 AM 37.4 °F 30.8 °F 30.2 °F 75% 29.36 in - South 9.2 mph - N/A   Clear
12:30 AM 37.4 °F 30.8 °F 32.0 °F 81% 29.36 in - South 9.2 mph - N/A   Clear
1:00 AM 37.4 °F 30.8 °F 32.0 °F 81% 29.36 in 6.2 mi South 9.2 mph - N/A   Scattered Clouds
1:30 AM 37.4 °F 31.4 °F 30.2 °F 75% 29.36 in - South 8.1 mph - N/A   Clear
2:00 AM 35.6 °F 29.9 °F 30.2 °F 81% 29.36 in - South 6.9 mph - N/A   Clear
2:30 AM 35.6 °F 28.6 °F 32.0 °F 87% 29.36 in - South 9.2 mph - N/A   Clear
3:00 AM 35.6 °F 28.6 °F 32.0 °F 87% 29.36 in - South 9.2 mph - N/A   Clear
3:30 AM 35.6 °F 28.6 °F 32.0 °F 87% 29.33 in - South 9.2 mph - N/A   Clear
4:00 AM 35.6 °F 29.2 °F 32.0 °F 87% 29.33 in - South 8.1 mph - N/A   Clear
4:30 AM 33.8 °F 26.4 °F 30.2 °F 87% 29.33 in 6.2 mi South 9.2 mph - N/A   Partly Cloudy
5:00 AM 33.8 °F 26.4 °F 32.0 °F 93% 29.33 in 6.2 mi SSE 9.2 mph - N/A   Mostly Cloudy
5:30 AM 33.8 °F 26.4 °F 32.0 °F 93% 29.33 in 6.2 mi South 9.2 mph - N/A   Mostly Cloudy
6:00 AM 33.8 °F 25.8 °F 32.0 °F 93% 29.33 in - South 10.4 mph - N/A   Clear
6:30 AM 35.6 °F 29.2 °F 32.0 °F 87% 29.30 in - South 8.1 mph - N/A   Clear
7:00 AM 33.8 °F 25.3 °F 32.0 °F 93% 29.30 in - South 11.5 mph - N/A   Clear
7:30 AM 33.8 °F 25.8 °F 32.0 °F 93% 29.30 in - SSE 10.4 mph - N/A   Clear
8:00 AM 35.6 °F 27.5 °F 32.0 °F 87% 29.30 in - SSE 11.5 mph - N/A   Clear
8:30 AM 37.4 °F 30.8 °F 33.8 °F 87% 29.30 in - South 9.2 mph - N/A   Clear
9:00 AM 39.2 °F 32.5 °F 35.6 °F 87% 29.30 in - South 10.4 mph - N/A   Clear
9:30 AM 41.0 °F 34.7 °F 35.6 °F 81% 29.30 in - South 10.4 mph - N/A   Clear
10:00 AM 42.8 °F 36.6 °F 35.6 °F 76% 29.27 in - South 11.5 mph - N/A   Clear
10:30 AM 44.6 °F 38.4 °F 35.6 °F 71% 29.27 in 6.2 mi South 12.7 mph - N/A   Mostly Cloudy
11:00 AM 44.6 °F 37.8 °F 33.8 °F 66% 29.27 in 6.2 mi South 15.0 mph - N/A   Mostly Cloudy
11:30 AM 46.4 °F 41.1 °F 35.6 °F 66% 29.27 in 6.2 mi Variable 11.5 mph - N/A   Scattered Clouds
12:00 PM 46.4 °F 40.4 °F 35.6 °F 66% 29.24 in 6.2 mi South 13.8 mph - N/A   Scattered Clouds
12:30 PM 46.4 °F 40.1 °F 35.6 °F 66% 29.24 in 6.2 mi Variable 15.0 mph 27.6 mph N/A   Scattered Clouds
1:00 PM 42.8 °F 35.4 °F 37.4 °F 81% 29.27 in 5.0 mi SSW 15.0 mph - N/A Rain Light Rain
1:30 PM 42.8 °F 35.8 °F 37.4 °F 81% 29.24 in 6.2 mi South 13.8 mph - N/A   Mostly Cloudy
2:00 PM 44.6 °F 37.8 °F 37.4 °F 76% 29.24 in 6.2 mi South 15.0 mph - N/A   Mostly Cloudy
2:30 PM 44.6 °F 38.1 °F 37.4 °F 76% 29.24 in 3.7 mi South 13.8 mph - N/A Rain Light Rain
3:00 PM 42.8 °F 35.1 °F 37.4 °F 81% 29.24 in 6.2 mi SSW 16.1 mph - N/A Rain Light Rain
3:30 PM 42.8 °F 35.4 °F 37.4 °F 81% 29.24 in 6.2 mi WSW 15.0 mph - N/A   Mostly Cloudy
4:00 PM 42.8 °F 36.6 °F 35.6 °F 76% 29.24 in 6.2 mi WSW 11.5 mph - N/A   Mostly Cloudy
4:30 PM 41.0 °F 34.7 °F 35.6 °F 81% 29.24 in 6.2 mi WSW 10.4 mph - N/A   Mostly Cloudy
5:00 PM 41.0 °F 33.9 °F 35.6 °F 81% 29.27 in 6.2 mi West 12.7 mph - N/A   Mostly Cloudy
5:30 PM 41.0 °F 34.3 °F 33.8 °F 76% 29.27 in 6.2 mi WSW 11.5 mph - N/A   Mostly Cloudy
6:00 PM 41.0 °F 34.7 °F 33.8 °F 76% 29.27 in 6.2 mi West 10.4 mph - N/A   Scattered Clouds
6:30 PM 41.0 °F 35.2 °F 33.8 °F 76% 29.30 in 6.2 mi West 9.2 mph - N/A   Scattered Clouds
7:00 PM 39.2 °F 32.5 °F 33.8 °F 81% 29.30 in 6.2 mi West 10.4 mph - N/A   Mostly Cloudy
7:30 PM 39.2 °F 34.2 °F 35.6 °F 87% 29.30 in 6.2 mi West 6.9 mph - N/A   Mostly Cloudy
8:00 PM 39.2 °F 35.0 °F 33.8 °F 81% 29.33 in 6.2 mi WSW 5.8 mph - N/A   Mostly Cloudy
8:30 PM 39.2 °F 33.6 °F 35.6 °F 87% 29.33 in 6.2 mi SW 8.1 mph - N/A   Mostly Cloudy
9:00 PM 39.2 °F 33.6 °F 35.6 °F 87% 29.33 in 6.2 mi WSW 8.1 mph - N/A   Mostly Cloudy
9:30 PM 39.2 °F 33.6 °F 35.6 °F 87% 29.36 in 6.2 mi WSW 8.1 mph - N/A   Mostly Cloudy
10:00 PM 41.0 °F 35.2 °F 35.6 °F 81% 29.36 in 6.2 mi WSW 9.2 mph - N/A Rain Light Rain Showers
10:30 PM 39.2 °F 33.6 °F 35.6 °F 87% 29.36 in 6.2 mi SW 8.1 mph - N/A   Mostly Cloudy
11:00 PM 39.2 °F 33.0 °F 35.6 °F 87% 29.39 in 6.2 mi SW 9.2 mph - N/A   Mostly Cloudy
11:30 PM 39.2 °F 33.0 °F 35.6 °F 87% 29.39 in 6.2 mi SW 9.2 mph - N/A   Mostly Cloudy